Home > Weather > Szczecin > Past weeks

Flag for Poland Weather for the Past 2 Weeks in Szczecin, Poland

Now
45 °F

Light rain. Passing clouds.


Feels Like: 38 °F
Forecast: 38 / 47 °F
Wind: 15 mph from South

Location: Szczecin Airport

Current Time: Feb 9, 2016 at 7:51:45 PM

Latest Report: Feb 9, 2016 at 7:30 PM


Visibility: N/A

Pressure: 29.12 "Hg

Humidity: 81%

Dew point: 39 °F

Location of SzczecinLocation

Historic Weather in Szczecin — Graph

°F

Szczecin Temperature Yesterday

Maximum temperature yesterday: 48 °F (at 1:30 PM)
Minimum temperature yesterday: 39 °F (at 3:30 AM)
Average temperature yesterday: 44 °F

High & Low Weather Summary for the Past Weeks

 TemperatureHumidityPressure
High52 °F (Feb 7, 1:00 PM)100% (Jan 25, 7:00 PM)30.18 "Hg (Jan 25, 7:00 PM)
Low30 °F (Feb 5, 1:00 AM)50% (Feb 9, 12:30 PM)29.15 "Hg (Feb 9, 7:00 PM)
Average42 °F81%29.79 "Hg
* Reported Jan 25 7:00 PM — Feb 9 7:00 PM, Szczecin, Weather by CustomWeather, © 2016

Note: Actual official high and low records may vary slightly from our data, if they occured in-between our weather recording intervals... More about our weather records

Advertising

Szczecin Weather History for the Previous 24 Hours

 ConditionsComfort  
Time TempWeatherWind HumidityBarometerVisibility
7:00 PM
Tue, Feb 9
46 °FLight rain. Clear.14 mph66%29.15 "HgN/A
6:30 PM46 °FPassing clouds.14 mph66%29.18 "HgN/A
6:00 PM46 °FClear.13 mph66%29.18 "Hg10 mi
5:30 PM46 °FClear.10 mph66%29.21 "Hg10 mi
5:00 PM46 °FClear.13 mph66%29.24 "Hg10 mi
4:30 PM46 °FPassing clouds.13 mph66%29.24 "HgN/A
4:00 PM46 °FScattered clouds.13 mph66%29.27 "HgN/A
3:30 PM46 °FSunny.14 mph66%29.27 "Hg10 mi
3:00 PM48 °FSunny.13 mph58%29.30 "Hg10 mi
2:30 PM48 °FScattered clouds.13 mph54%29.30 "HgN/A
2:00 PM48 °FPartly sunny.10 mph54%29.33 "HgN/A
1:30 PM48 °FPassing clouds.14 mph54%29.33 "HgN/A
1:00 PM46 °FScattered clouds.14 mph57%29.36 "HgN/A
12:30 PM48 °FSunny.16 mph50%29.36 "Hg10 mi
11:30 AM46 °FScattered clouds.16 mph57%29.36 "HgN/A
11:00 AM46 °FSunny.16 mph57%29.36 "Hg10 mi
10:30 AM46 °FPassing clouds.16 mph57%29.36 "HgN/A
10:00 AM46 °FPassing clouds.17 mph57%29.36 "HgN/A
9:00 AM43 °FLight rain. Partly sunny.14 mph81%29.36 "HgN/A
8:30 AM43 °FLight rain. Partly sunny.16 mph81%29.33 "HgN/A
8:00 AM45 °FBroken clouds.15 mph76%29.33 "HgN/A
7:00 AM45 °FLight rain. Passing clouds.14 mph76%29.30 "HgN/A
6:30 AM45 °FPartly cloudy.16 mph76%29.30 "HgN/A
6:00 AM43 °FOvercast.16 mph81%29.30 "HgN/A
5:30 AM43 °FMostly cloudy.16 mph81%29.30 "HgN/A
5:00 AM43 °FPartly cloudy.16 mph81%29.30 "HgN/A
4:30 AM45 °FPassing clouds.16 mph71%29.27 "HgN/A
4:00 AM45 °FPassing clouds.16 mph71%29.27 "HgN/A
3:30 AM45 °FPassing clouds.17 mph66%29.27 "HgN/A
3:00 AM45 °FPartly cloudy.14 mph66%29.30 "HgN/A
2:30 AM45 °FPassing clouds.14 mph71%29.30 "HgN/A
2:00 AM45 °FPassing clouds.13 mph71%29.30 "HgN/A
1:30 AM45 °FMostly cloudy.13 mph71%29.30 "HgN/A
1:00 AM45 °FMostly cloudy.12 mph71%29.30 "HgN/A
12:30 AM43 °FPassing clouds.12 mph76%29.30 "HgN/A
12:00 AM45 °FPassing clouds.12 mph71%29.30 "HgN/A
11:00 PM
Mon, Feb 8
45 °FPassing clouds.12 mph71%29.30 "HgN/A
10:30 PM45 °FPassing clouds.12 mph76%29.30 "HgN/A
10:00 PM45 °FPassing clouds.9 mph76%29.30 "HgN/A
9:30 PM46 °FClear.13 mph71%29.30 "Hg10 mi
9:00 PM48 °FPartly cloudy.13 mph71%29.30 "HgN/A
8:30 PM48 °FPassing clouds.14 mph71%29.27 "HgN/A
8:00 PM48 °FPassing clouds.14 mph71%29.27 "HgN/A
7:30 PM48 °FClear.16 mph71%29.27 "Hg10 mi
7:00 PM48 °FPassing clouds.12 mph71%29.27 "HgN/A
Weather by CustomWeather, © 2016

See weather overviewHow to use our weather pages